TCNPI LTAI-LTAI

Flight info

Callsign TCNPI
Flight time 0h 14m
Altitude 1500
Route
Aircraft

Departure

Time 2026-05-05 14:38
Airport Antalya International Airport (LTAI)

Arrival

Time 2026-05-05 14:53
Airport Antalya International Airport (LTAI)
Time Latitude Longitude Altitude Speed Heading
2026-05-05 14:27 36.90948 30.79749 192 ft 0 kts 276°
2026-05-05 14:31 36.90948 30.79748 192 ft 2 kts 274°
2026-05-05 14:31 36.90905 30.79756 188 ft 7 kts 179°
2026-05-05 14:31 36.90824 30.79738 186 ft 14 kts 189°
2026-05-05 14:32 36.90744 30.79730 198 ft 10 kts 179°
2026-05-05 14:32 36.90680 30.79720 193 ft 12 kts 188°
2026-05-05 14:32 36.90599 30.79709 194 ft 10 kts 184°
2026-05-05 14:32 36.90513 30.79698 186 ft 15 kts 185°
2026-05-05 14:33 36.90421 30.79710 186 ft 14 kts 136°
2026-05-05 14:33 36.90389 30.79865 186 ft 19 kts 99°
2026-05-05 14:33 36.90378 30.80012 186 ft 16 kts 94°
2026-05-05 14:33 36.90363 30.80149 187 ft 20 kts 98°
2026-05-05 14:34 36.90350 30.80317 187 ft 23 kts 97°
2026-05-05 14:34 36.90333 30.80498 187 ft 19 kts 96°
2026-05-05 14:34 36.90323 30.80627 187 ft 7 kts 96°
2026-05-05 14:34 36.90319 30.80684 187 ft 6 kts 104°
2026-05-05 14:35 36.90315 30.80733 187 ft 6 kts 82°
2026-05-05 14:35 36.90261 30.80754 187 ft 9 kts 173°
2026-05-05 14:35 36.90214 30.80769 189 ft 5 kts 154°
2026-05-05 14:35 36.90172 30.80795 187 ft 10 kts 159°
2026-05-05 14:36 36.90078 30.80847 187 ft 15 kts 162°
2026-05-05 14:36 36.89961 30.80910 187 ft 21 kts 156°
2026-05-05 14:36 36.89826 30.80955 185 ft 20 kts 176°
2026-05-05 14:36 36.89756 30.80953 189 ft 7 kts 185°
2026-05-05 14:37 36.89524 30.80922 187 ft 56 kts 186°
2026-05-05 14:37 36.89052 30.80855 253 ft 79 kts 183°
2026-05-05 14:37 36.88438 30.80764 310 ft 96 kts 185°
2026-05-05 14:37 36.87753 30.80691 450 ft 96 kts 179°
2026-05-05 14:38 36.87275 30.81145 691 ft 97 kts 109°
2026-05-05 14:38 36.87552 30.81926 869 ft 113 kts 38°
2026-05-05 14:38 36.88353 30.82042 951 ft 127 kts
2026-05-05 14:38 36.89256 30.82115 1028 ft 132 kts
2026-05-05 14:39 36.90135 30.82184 1035 ft 119 kts
2026-05-05 14:39 36.90949 30.82265 874 ft 117 kts
2026-05-05 14:39 36.91731 30.82392 789 ft 110 kts
2026-05-05 14:39 36.92391 30.82091 885 ft 103 kts 302°
2026-05-05 14:40 36.92421 30.81332 866 ft 83 kts 222°
2026-05-05 14:40 36.91857 30.81214 464 ft 88 kts 180°
2026-05-05 14:40 36.91293 30.81160 262 ft 75 kts 185°
2026-05-05 14:40 36.90795 30.81092 187 ft 64 kts 185°
2026-05-05 14:41 36.90374 30.81043 258 ft 65 kts 180°
2026-05-05 14:41 36.89873 30.80956 335 ft 79 kts 185°
2026-05-05 14:41 36.89249 30.80877 362 ft 96 kts 186°
2026-05-05 14:41 36.88546 30.80793 417 ft 103 kts 185°
2026-05-05 14:42 36.87830 30.80687 502 ft 104 kts 184°
2026-05-05 14:42 36.87249 30.81088 680 ft 106 kts 121°
2026-05-05 14:42 36.87449 30.81960 789 ft 128 kts 34°
2026-05-05 14:42 36.88359 30.82009 807 ft 138 kts 357°
2026-05-05 14:43 36.89317 30.82016 764 ft 138 kts 358°
2026-05-05 14:43 36.90284 30.82011 711 ft 132 kts
2026-05-05 14:43 36.91162 30.82101 649 ft 122 kts
2026-05-05 14:43 36.91984 30.82186 575 ft 122 kts
2026-05-05 14:44 36.92790 30.82269 677 ft 110 kts 348°
2026-05-05 14:44 36.93060 30.81606 646 ft 99 kts 238°
2026-05-05 14:44 36.92520 30.81308 531 ft 87 kts 180°
2026-05-05 14:44 36.91955 30.81242 406 ft 78 kts 183°
2026-05-05 14:45 36.91448 30.81180 266 ft 70 kts 184°
2026-05-05 14:45 36.90990 30.81119 194 ft 61 kts 184°
2026-05-05 14:45 36.90592 30.81064 239 ft 62 kts 185°
2026-05-05 14:45 36.90091 30.80998 289 ft 85 kts 184°
2026-05-05 14:46 36.89446 30.80927 337 ft 99 kts 186°
2026-05-05 14:46 36.88762 30.80821 511 ft 95 kts 186°
2026-05-05 14:46 36.88138 30.80727 762 ft 87 kts 186°
2026-05-05 14:46 36.87532 30.80735 965 ft 87 kts 156°
2026-05-05 14:47 36.87320 30.81455 1118 ft 107 kts 76°
2026-05-05 14:47 36.87936 30.81942 1145 ft 117 kts 16°
2026-05-05 14:47 36.88723 30.82152 1085 ft 116 kts 11°
2026-05-05 14:47 36.89517 30.82274 1113 ft 113 kts
2026-05-05 14:48 36.90315 30.82312 1114 ft 117 kts
2026-05-05 14:48 36.91140 30.82310 1091 ft 121 kts
2026-05-05 14:48 36.91982 30.82349 1011 ft 122 kts
2026-05-05 14:48 36.92812 30.82400 1017 ft 118 kts
2026-05-05 14:49 36.93625 30.82552 1000 ft 119 kts 23°
2026-05-05 14:49 36.94060 30.83331 1001 ft 112 kts 97°
2026-05-05 14:49 36.93664 30.84046 1015 ft 104 kts 163°
2026-05-05 14:49 36.93013 30.83781 1014 ft 108 kts 231°
2026-05-05 14:50 36.92999 30.82861 1016 ft 117 kts 299°
2026-05-05 14:50 36.93717 30.82440 1009 ft 122 kts
2026-05-05 14:50 36.94414 30.82972 1008 ft 121 kts 60°
2026-05-05 14:50 36.94441 30.83908 1019 ft 108 kts 128°
2026-05-05 14:51 36.93796 30.84221 1012 ft 107 kts 194°
2026-05-05 14:51 36.93310 30.83524 939 ft 119 kts 249°
2026-05-05 14:51 36.93124 30.82606 765 ft 99 kts 243°
2026-05-05 14:51 36.92836 30.81938 730 ft 84 kts 231°
2026-05-05 14:52 36.92471 30.81422 500 ft 72 kts 201°
2026-05-05 14:52 36.92026 30.81268 379 ft 63 kts 188°
2026-05-05 14:52 36.91597 30.81201 299 ft 62 kts 184°
2026-05-05 14:52 36.91181 30.81148 226 ft 58 kts 184°
2026-05-05 14:53 36.90812 30.81096 186 ft 44 kts 185°
2026-05-05 14:53 36.90578 30.81068 189 ft 33 kts 187°
2026-05-05 14:53 36.90340 30.81032 186 ft 35 kts 187°
2026-05-05 14:53 36.90077 30.80995 185 ft 41 kts 185°
2026-05-05 14:54 36.89787 30.80952 185 ft 42 kts 187°
2026-05-05 14:54 36.89518 30.80921 185 ft 32 kts 187°
2026-05-05 14:54 36.89357 30.80872 195 ft 18 kts 199°
2026-05-05 14:54 36.89260 30.80805 185 ft 16 kts 217°
2026-05-05 14:55 36.89182 30.80736 186 ft 10 kts 218°
2026-05-05 14:55 36.89162 30.80714 188 ft 0 kts 225°
2026-05-05 14:56 36.89123 30.80680 186 ft 18 kts 212°
2026-05-05 14:56 36.89021 30.80615 192 ft 14 kts 185°
2026-05-05 14:56 36.88924 30.80603 187 ft 19 kts 186°
2026-05-05 14:56 36.88810 30.80582 187 ft 14 kts 217°
2026-05-05 14:57 36.88803 30.80448 187 ft 18 kts 277°
2026-05-05 14:57 36.88820 30.80259 187 ft 22 kts 276°
2026-05-05 14:57 36.88836 30.80078 187 ft 20 kts 278°
2026-05-05 14:57 36.88847 30.79947 187 ft 8 kts 282°
2026-05-05 14:58 36.88860 30.79806 187 ft 19 kts 270°
2026-05-05 14:58 36.88833 30.79709 187 ft 12 kts 180°
2026-05-05 14:58 36.88745 30.79724 187 ft 13 kts 121°
2026-05-05 14:58 36.88744 30.79812 187 ft 7 kts 97°
2026-05-05 14:59 36.88743 30.79822 187 ft 0 kts 96°